Location: Capvern
(43.1036°N, 0.3160°E)
Time: 12:09:35
(UTC+00:00)

Cosmos 489 Rocket - Visible Passes

Search period start: 29 May 2022 00:00
Search period end: 08 June 2022 00:00
Orbit: 953 x 982 km, 74.0° (Epoch: 29 May)

Date Brightness Start Highest point End Pass type
(mag) Time Alt. Az. Time Alt. Az. Time Alt. Az.
29 May 7.5 01:11:55 10° NNE 01:13:43 11° NE 01:15:30 10° ENE visible
29 May 5.2 02:55:27 10° NNW 03:01:36 57° ENE 03:07:45 10° SE visible
30 May 7.0 01:33:22 10° N 01:37:39 19° NE 01:41:56 10° E visible
30 May 4.5 03:18:36 10° NNW 03:24:52 83° WSW 03:31:09 10° SSE visible
31 May 6.3 01:55:52 10° N 02:01:22 31° ENE 02:06:50 10° ESE visible
31 May 4.8 03:42:02 10° NNW 03:47:58 46° WSW 03:53:54 10° S visible
01 Jun 7.5 00:35:57 10° NE 00:36:51 10° NE 00:37:45 10° NE visible
01 Jun 5.3 02:18:45 10° NNW 02:24:51 53° ENE 02:30:58 10° SE visible
02 Jun 7.0 00:56:47 10° N 01:00:50 17° NE 01:04:53 10° E visible
02 Jun 4.5 02:41:52 10° NNW 02:48:09 89° WSW 02:54:27 10° SSE visible
03 Jun 6.3 01:19:13 10° N 01:24:35 29° ENE 01:29:56 10° ESE visible
03 Jun 4.7 03:05:15 10° NNW 03:11:16 51° WSW 03:17:17 10° S visible
04 Jun 5.4 01:42:03 10° N 01:48:06 49° ENE 01:54:09 10° SE visible
04 Jun 5.4 03:29:01 10° NW 03:34:13 28° W 03:39:25 10° SSW visible
05 Jun 6.9 00:20:14 10° NNE 00:24:00 16° NE 00:27:47 10° E visible
05 Jun 4.5 02:05:08 10° NNW 02:11:25 84° ENE 02:17:43 10° SSE visible
06 Jun 6.3 00:42:35 10° N 00:47:47 27° ENE 00:53:00 10° ESE visible
06 Jun 4.6 02:28:28 10° NNW 02:34:34 56° WSW 02:40:17 12° S visible
07 Jun 5.4 01:05:21 10° N 01:11:20 45° ENE 01:17:19 10° SE visible
07 Jun 5.3 02:52:10 10° NW 02:57:32 31° W 03:02:00 14° SSW visible
07 Jun 6.9 23:43:42 10° NNE 23:47:11 15° NE 23:50:39 10° E visible
